Hourly Data Report for October 23, 2013

All times are specified in Local Standard Time (LST). Add 1 hour to adjust for Daylight Saving Time where and when it is observed.

POND INLET A
NUNAVUT

72°41'22.000" N
77°58'08.000" W
61.60 m
2403206
71095
YIO

Download Data

Hourly Data (October 2013)
Hourly Data Report for October 23, 2013
Temp Definition
°C
Dew Point Temp Definition
°C
Rel Hum Definition
%
Wind Dir Definition
10's deg

Wind Spd Definition
km/h
Visibility Definition
km
Stn Press Definition
kPa
Hmdx Definition


Wind Chill Definition


Weather Definition


TIME
00:00 Legend Double Dagger -9.6 -11.4 87 15 22 16.1 101.14   -18 LegendNANA
01:00 Legend Double Dagger -9.5 -11.4 86 15 22 16.1 101.11   -18 LegendNANA
02:00 Legend Double Dagger -9.4 -10.8 90 16 24 3.6 101.08   -18 LegendNANA
03:00 Legend Double Dagger -9.6 -11.0 90 16 18 3.2 101.07   -17 LegendNANA
04:00 Legend Double Dagger -10.0 -11.6 88 16 18 16.1 101.05   -17 LegendNANA
05:00 Legend Double Dagger -9.6 -11.5 86 15 18 16.1 101.03   -17 LegendNANA
06:00 Legend Double Dagger -9.6 -11.8 84 15 21 16.1 100.98   -18 LegendNANA
07:00 Legend Double Dagger -9.2 -11.4 85 16 18 16.1 100.95   -16 LegendNANA
08:00 Legend Double Dagger -9.1 -11.0 86 17 11 3.2 100.94   -15 LegendNANA
09:00 Legend Double Dagger -9.4 -11.6 84 15 13 4.8 100.92   -15 LegendNANA
10:00 Legend Double Dagger -10.4 -12.8 83 14 15 16.1 100.89   -17 LegendNANA
11:00 Legend Double Dagger -9.9 -12.3 83 14 9 16.1 100.85   -15 LegendNANA
12:00 Legend Double Dagger -9.1 -11.8 81 15 18 16.1 100.82   -16 LegendNANA
13:00 Legend Double Dagger -9.6 -11.7 85 15 13 8.1 100.81   -16 LegendNANA
14:00 Legend Double Dagger -9.7 -11.6 86 15 13 4.8 100.80   -16 LegendNANA
15:00 Legend Double Dagger -9.8 -11.9 85 14 8 16.1 100.80   -14 LegendNANA
16:00 Legend Double Dagger -10.0 -12.0 86 13 11 16.1 100.78   -16 LegendNANA
17:00 Legend Double Dagger -10.0 -12.1 85 12 9 16.1 100.77   -15 LegendNANA
18:00 Legend Double Dagger -10.0 -12.1 85 12 11 16.1 100.75   -16 LegendNANA
19:00 Legend Double Dagger -10.4 -12.5 85 13 13 16.1 100.73   -17 LegendNANA
20:00 Legend Double Dagger -9.3 -11.2 86 13 9 16.1 100.68   -14 LegendNANA
21:00 Legend Double Dagger -8.2 -10.8 82 8 8 16.1 100.66   -12 LegendNANA
22:00 Legend Double Dagger -8.5 -10.7 84 10 11 16.1 100.63   -14 LegendNANA
23:00 Legend Double Dagger -9.4 -11.5 85 10 13 16.1 100.59   -15 LegendNANA

Notes on Data Quality.

Legend

  • E = Estimated
  • M = Missing
  • NA = Not Available
  • ‡ = Partner data that is not subject to review by the National Climate Archives
Date modified: